Sand Point, AK

9:43 PM AKDT on May 27, 2018 (GMT -0800)
Sand Point

Weather History for PASD - January, 2013

Change the Weather History Date:

Tuesday, January 29, 2013

  Actual Average Record
Temperature  
Mean Temperature 39 °F -  
Max Temperature 41 °F 32 °F 44 °F (2014)
Min Temperature 37 °F 26 °F -7 °F (1989)
Degree Days  
Heating Degree Days 26    
Moisture  
Dew Point 39 °F    
Average Humidity 99    
Maximum Humidity 100    
Minimum Humidity 93    
Precipitation  
Precipitation 0.00 in - - ()
Sea Level Pressure  
Sea Level Pressure 29.23 in    
Wind  
Wind Speed 15 mph (SSE)    
Max Wind Speed 26 mph    
Max Gust Speed 31 mph    
Visibility 5 miles    
Events      
Averages and records for this station are not official NWS values.
T = Trace of Precipitation, MM = Missing Value Source: NWS Daily Summary

Daily Weather History Graph

Daily Weather History Graph

Search for Another Location

Airport or City:

Astronomy

Jan. 29, 2013 Rise Set
Actual Time 9:38 AM AKST 6:12 PM AKST
Civil Twilight 8:57 AM AKST 6:53 PM AKST
Nautical Twilight 8:13 AM AKST 7:38 PM AKST
Astronomical Twilight 7:30 AM AKST 8:20 PM AKST
Moon 10:04 PM AKST (1/29) 10:03 AM AKST (1/29)
Length of Visible Light 9h 55m
Length of Day
8h 34m
Waning Gibbous, 93% of the Moon is Illuminated
Jan 29
Waning Gibbous
Feb 3
Last Quarter
Feb 9
New
Feb 17
First Quarter
Feb 25
Full

Hourly Weather History & Observations

Time (AKST) Temp. Windchill Dew Point Humidity Pressure Visibility Wind Dir Wind Speed Gust Speed Precip Events Conditions
12:16 AM 41.0 °F 33.5 °F 41.0 °F 100% 29.02 in 1.8 mi SE 13.8 mph 20.7 mph N/A   Overcast
12:36 AM 39.2 °F 30.5 °F 39.2 °F 100% 29.04 in 1.5 mi SSE 16.1 mph 23.0 mph N/A   Overcast
12:56 AM 39.2 °F 30.5 °F 39.2 °F 100% 29.04 in 2.0 mi SE 16.1 mph 23.0 mph N/A   Overcast
1:16 AM 39.2 °F 31.2 °F 39.2 °F 100% 29.04 in 1.8 mi SE 13.8 mph 23.0 mph N/A   Overcast
1:36 AM 39.2 °F 30.5 °F 39.2 °F 100% 29.05 in 1.5 mi SE 16.1 mph 21.9 mph N/A   Overcast
1:56 AM 39.2 °F 29.8 °F 39.2 °F 100% 29.06 in 1.5 mi SSE 18.4 mph 24.2 mph N/A   Overcast
2:16 AM 39.2 °F 30.5 °F 39.2 °F 100% 29.07 in 2.0 mi SE 16.1 mph - N/A   Overcast
2:56 AM 39.2 °F 30.8 °F 39.2 °F 100% 29.08 in 2.0 mi SE 15.0 mph 20.7 mph N/A   Overcast
3:16 AM 39.2 °F 30.8 °F 39.2 °F 100% 29.08 in 3.0 mi SSE 15.0 mph - N/A   Overcast
3:36 AM 39.2 °F 29.3 °F 37.4 °F 93% 29.10 in 2.5 mi South 20.7 mph - N/A   Overcast
3:56 AM 39.2 °F 29.8 °F 37.4 °F 93% 29.11 in 2.5 mi SSE 18.4 mph 24.2 mph N/A   Overcast
4:16 AM 39.2 °F 29.3 °F 37.4 °F 93% 29.11 in 3.0 mi SSE 20.7 mph - N/A   Overcast
4:36 AM 39.2 °F 28.7 °F 37.4 °F 93% 29.12 in 3.0 mi South 23.0 mph 26.5 mph N/A   Overcast
5:16 AM 39.2 °F 28.5 °F 39.2 °F 100% 29.14 in 3.0 mi South 24.2 mph - N/A   Overcast
5:36 AM 39.2 °F 28.7 °F 39.2 °F 100% 29.14 in 5.0 mi South 23.0 mph 31.1 mph N/A   Overcast
5:56 AM 39.2 °F 28.0 °F 39.2 °F 100% 29.14 in 3.0 mi South 26.5 mph 29.9 mph N/A   Overcast
6:16 AM 39.2 °F 29.0 °F 39.2 °F 100% 29.15 in 3.0 mi South 21.9 mph 26.5 mph N/A   Overcast
6:36 AM 37.4 °F 25.9 °F 37.4 °F 100% 29.16 in 2.0 mi South 25.3 mph - N/A   Overcast
6:56 AM 37.4 °F 26.1 °F 37.4 °F 100% 29.17 in 5.0 mi South 24.2 mph 28.8 mph N/A   Overcast
7:16 AM 39.2 °F 30.2 °F 39.2 °F 100% 29.17 in 10.0 mi SSE 17.3 mph - N/A   Overcast
7:36 AM 37.4 °F 28.5 °F 37.4 °F 100% 29.17 in 5.0 mi SSE 15.0 mph - N/A   Overcast
7:56 AM 37.4 °F 29.3 °F 37.4 °F 100% 29.18 in 5.0 mi SSE 12.7 mph 18.4 mph N/A   Overcast
8:16 AM 37.4 °F 29.3 °F 37.4 °F 100% 29.18 in 4.0 mi SSE 12.7 mph 19.6 mph N/A   Overcast
8:36 AM 37.4 °F 28.9 °F 37.4 °F 100% 29.18 in 5.0 mi SSE 13.8 mph - N/A   Overcast
8:56 AM 37.4 °F 28.2 °F 37.4 °F 100% 29.19 in 4.0 mi SSE 16.1 mph - N/A   Overcast
9:16 AM 37.4 °F 28.5 °F 37.4 °F 100% 29.20 in 3.0 mi SSE 15.0 mph - N/A   Overcast
9:36 AM 39.2 °F 32.0 °F 39.2 °F 100% 29.21 in 2.0 mi SSE 11.5 mph - N/A   Overcast
9:56 AM 37.4 °F 30.3 °F 37.4 °F 100% 29.22 in 1.0 mi SSE 10.4 mph - N/A   Overcast
10:16 AM 39.2 °F 31.2 °F 39.2 °F 100% 29.22 in 1.0 mi SSE 13.8 mph - N/A   Overcast
10:36 AM 39.2 °F 30.5 °F 39.2 °F 100% 29.22 in 1.5 mi SE 16.1 mph 23.0 mph N/A   Overcast
10:56 AM 39.2 °F 30.2 °F 39.2 °F 100% 29.23 in 2.0 mi SSE 17.3 mph 23.0 mph N/A   Overcast
11:16 AM 39.2 °F 30.2 °F 39.2 °F 100% 29.24 in 4.0 mi SSE 17.3 mph 23.0 mph N/A   Overcast
11:36 AM 41.0 °F 32.5 °F 41.0 °F 100% 29.25 in 3.0 mi SSE 17.3 mph 21.9 mph N/A   Overcast
11:56 AM 39.2 °F 31.6 °F 39.2 °F 100% 29.25 in 0.8 mi SE 12.7 mph - N/A   Overcast
12:16 PM 39.2 °F 31.6 °F 39.2 °F 100% 29.27 in 1.0 mi SE 12.7 mph 17.3 mph N/A   Overcast
12:36 PM 39.2 °F 32.5 °F 39.2 °F 100% 29.27 in 1.0 mi SE 10.4 mph - N/A   Overcast
12:56 PM 39.2 °F 32.0 °F 39.2 °F 100% 29.28 in 2.0 mi SE 11.5 mph 18.4 mph N/A   Overcast
1:16 PM 39.2 °F 31.6 °F 39.2 °F 100% 29.28 in 3.0 mi SSE 12.7 mph 17.3 mph N/A   Overcast
1:36 PM 39.2 °F 31.6 °F 39.2 °F 100% 29.27 in 4.0 mi SSE 12.7 mph - N/A   Mostly Cloudy
1:56 PM 39.2 °F 31.2 °F 39.2 °F 100% 29.28 in 5.0 mi SSE 13.8 mph 19.6 mph N/A   Overcast
2:16 PM 39.2 °F 30.2 °F 39.2 °F 100% 29.29 in 2.0 mi SE 17.3 mph 21.9 mph N/A   Overcast
2:36 PM 39.2 °F 31.2 °F 39.2 °F 100% 29.30 in 1.2 mi SSE 13.8 mph - N/A   Overcast
2:56 PM 39.2 °F 31.2 °F 37.4 °F 93% 29.29 in 2.5 mi SSE 13.8 mph - N/A   Overcast
3:16 PM 39.2 °F 29.6 °F 37.4 °F 93% 29.29 in 3.0 mi South 19.6 mph - N/A   Overcast
3:36 PM 39.2 °F 29.8 °F 39.2 °F 100% 29.30 in 5.0 mi South 18.4 mph - N/A   Overcast
3:56 PM 39.2 °F 29.3 °F 39.2 °F 100% 29.31 in 10.0 mi South 20.7 mph - N/A   Mostly Cloudy
4:16 PM 39.2 °F 30.8 °F 39.2 °F 100% 29.30 in 10.0 mi SSE 15.0 mph - N/A   Mostly Cloudy
4:36 PM 39.2 °F 31.6 °F 39.2 °F 100% 29.30 in 10.0 mi SSE 12.7 mph - N/A   Mostly Cloudy
4:56 PM 39.2 °F 30.8 °F 39.2 °F 100% 29.31 in 10.0 mi SE 15.0 mph - N/A   Mostly Cloudy
5:16 PM 39.2 °F 30.8 °F 39.2 °F 100% 29.33 in 10.0 mi SSE 15.0 mph 19.6 mph N/A   Mostly Cloudy
5:36 PM 37.4 °F 28.5 °F 37.4 °F 100% 29.34 in 10.0 mi SSE 15.0 mph 19.6 mph N/A   Mostly Cloudy
5:56 PM 39.2 °F 33.6 °F 39.2 °F 100% 29.33 in 10.0 mi SSE 8.1 mph - N/A   Overcast
6:16 PM 39.2 °F 33.0 °F 39.2 °F 100% 29.33 in 10.0 mi SE 9.2 mph 16.1 mph N/A   Overcast
6:36 PM 39.2 °F 32.5 °F 39.2 °F 100% 29.33 in 10.0 mi SE 10.4 mph - N/A   Overcast
6:56 PM 39.2 °F 34.2 °F 39.2 °F 100% 29.34 in 10.0 mi SE 6.9 mph - N/A   Overcast
7:16 PM 39.2 °F 35.0 °F 39.2 °F 100% 29.33 in 10.0 mi SE 5.8 mph - N/A   Overcast
7:36 PM 39.2 °F 33.0 °F 37.4 °F 93% 29.32 in 10.0 mi SSE 9.2 mph - N/A   Overcast
7:56 PM 39.2 °F 35.0 °F 39.2 °F 100% 29.32 in 10.0 mi SSE 5.8 mph - N/A   Overcast
8:16 PM 39.2 °F - 39.2 °F 100% 29.32 in 5.0 mi Calm Calm - N/A   Overcast
8:36 PM 39.2 °F 33.6 °F 39.2 °F 100% 29.32 in 7.0 mi SE 8.1 mph - N/A   Overcast
8:56 PM 39.2 °F 35.0 °F 37.4 °F 93% 29.31 in 6.0 mi SE 5.8 mph - N/A   Overcast
9:16 PM 39.2 °F 35.0 °F 39.2 °F 100% 29.32 in 2.5 mi SSE 5.8 mph - N/A   Overcast
9:36 PM 39.2 °F 34.2 °F 39.2 °F 100% 29.33 in 2.0 mi SE 6.9 mph - N/A   Overcast
9:56 PM 39.2 °F - 39.2 °F 100% 29.31 in 7.0 mi Calm Calm - N/A   Overcast
10:16 PM 41.0 °F 37.1 °F 41.0 °F 100% 29.31 in 8.0 mi SE 5.8 mph - N/A   Overcast
10:36 PM 39.2 °F 34.2 °F 39.2 °F 100% 29.31 in 5.0 mi SE 6.9 mph - N/A   Overcast
10:56 PM 39.2 °F - 39.2 °F 100% 29.32 in 8.0 mi Calm Calm - N/A   Overcast
11:16 PM 41.0 °F 37.1 °F 41.0 °F 100% 29.32 in 5.0 mi SSE 5.8 mph - N/A   Overcast
11:36 PM 41.0 °F 37.1 °F 41.0 °F 100% 29.31 in 6.0 mi SE 5.8 mph - N/A   Overcast
11:56 PM 39.2 °F 33.0 °F 39.2 °F 100% 29.31 in 7.0 mi SSE 9.2 mph - N/A   Overcast